Regional Weather Roundup
Issued by NWS Upton, NY

Home | Current Version | Previous Version | Text Only | Print | Product List | Glossary On
Versions: 1 2 3 4 5 6 7 8 9 10 11 12 13 14 15 16 17 18 19 20 21 22 23 24 25 26 27 28 29 30 31 32 33 34 35 36 37 38 39 40 41 42 43 44 45 46 47 48 49 50
000
ASUS41 KOKX 310504
RWROKX

REGIONAL WEATHER ROUNDUP
NATIONAL WEATHER SERVICE NEW YORK NY
100 AM EDT FRI JUL 31 2015

NOTE: "FAIR" INDICATES FEW OR NO CLOUDS BELOW 12,000 FEET WITH NO
SIGNIFICANT WEATHER AND/OR OBSTRUCTIONS TO VISIBILITY.

NYZ071-072-176-178-NJZ106-104-310600-
NEW YORK CITY METRO AREA


CITY           SKY/WX    TMP DP  RH WIND       PRES   REMARKS
CENTRAL PARK   PTCLDY    77  72  84 VRB3      29.87S HAZE
LAGUARDIA APRT PTCLDY    78  72  81 SW3       29.83S
KENNEDY INTL   MOCLDY    77  73  87 W8        29.84F
NEWARK/LIBERTY MOCLDY    76  73  91 SW6       29.84S
BRNX BOT. GARD   N/A     75  72  88 CALM      29.86S
TETERBORO      CLEAR     75  71  87 CALM      29.83S
$$

NYZ177-179-078>081-310600-
LONG ISLAND NEW YORK

CITY           SKY/WX    TMP DP  RH WIND       PRES   REMARKS
FARMINGDALE    PTCLDY    75  72  90 W5        29.84S
ISLIP          PTCLDY    74  73  97 W3        29.82S
SHIRLEY        MOCLDY    75  74  96 W5        29.83F
WESTHAMPTON    CLOUDY    76  74  93 CALM      29.84S
MONTAUK POINT    N/A     76  73  91 W5        29.84S
$$

NYZ052-065-067-310600-
HUDSON VALLEY

CITY           SKY/WX    TMP DP  RH WIND       PRES   REMARKS
WHITE PLAINS   CLEAR     74  72  93 W3        29.84S FOG
NEWBURGH       CLEAR     68  68 100 W7        29.87R
MONTGOMERY     CLEAR     69  63  81 W5        29.86R
POUGHKEEPSIE   CLEAR     70  68  93 CALM      29.83S FOG
ALBANY         PTCLDY    70  62  76 SW3       29.82S
$$

NJZ001-105-106-008-010-013-015-019>022-104-310600-
NEW JERSEY

CITY           SKY/WX    TMP DP  RH WIND       PRES   REMARKS
NEWARK/LIBERTY MOCLDY    76  73  91 SW6       29.84S
TETERBORO      CLEAR     75  71  87 CALM      29.83S
CALDWELL       CLEAR     74  71  91 CALM      29.86R FOG
MORRISTOWN     FOG       72  68  88 CALM      29.86R VSB 1/4
SOMERVILLE     MOCLDY    70  69  97 CALM      29.84S FOG
SUSSEX         CLEAR     67  65  93 CALM      29.87S
ANDOVER          N/A     71  71 100 CALM      29.89R
TRENTON        CLEAR     74  72  93 W3        29.85F
MILLVILLE      PTCLDY    73  71  93 W6        29.88F FOG
ATLANTIC CITY  MOCLDY    76  72  87 W8        29.87F
WRIGHTSTOWN    CLOUDY    75  75 100 W9        29.84S
TOMS RIVER       N/A     75  73  94 W10       29.86F
BELMAR         CLOUDY    73  70  88 W6        29.86S
$$

PAZ047>061-062-071-310600-
EASTERN PENNSYLVANIA

CITY           SKY/WX    TMP DP  RH WIND       PRES   REMARKS
PHILADELPHIA   PTCLDY    77  73  87 W8        29.88S
ALLENTOWN      PTCLDY    70  66  87 CALM      29.89R
SCRANTON       CLEAR     68  61  78 CALM      29.92R
$$

CTZ002-004>006-009-010-012-RIZ004-006-007-MAZ004-011-015-310600-
SOUTHERN NEW ENGLAND
 IN CT

CITY           SKY/WX    TMP DP  RH WIND       PRES   REMARKS
BRADLEY INTL   PTCLDY    72  70  93 SW3       29.81S FOG
HARTFORD       PTCLDY    74  72  93 CALM      29.82R
DANBURY        FOG       72  69  90 W5        29.86S VSB 1/4
WTRBRY/OXFORD  CLOUDY    75  68  78 CALM      29.87S
BRIDGEPORT     MOCLDY    76  74  93 SW5       29.82S FOG
MERIDEN        PTCLDY    73  71  93 CALM      29.83S FOG
NEW HAVEN      CLOUDY    75  73  93 CALM      29.83R FOG
CHESTER        MOCLDY    73  73 100 CALM      29.85S FOG
GROTON         CLOUDY    73  72  96 SW5       29.82S FOG
WILLIMANTIC    CLOUDY    74  71  91 CALM      29.82S

 IN RI

CITY           SKY/WX    TMP DP  RH WIND       PRES   REMARKS
PROVIDENCE     MOCLDY    74  72  93 S5        29.81S
BLOCK ISLAND     N/A     72  72 100 W7        29.84S
WESTERLY       NOT AVBL

 IN MA

CITY           SKY/WX    TMP DP  RH WIND       PRES   REMARKS
BOSTON         PTCLDY    74  71  91 SW12      29.78F
WORCESTER      CLEAR     69  67  93 W8        29.84S
WESTFIELD      FOG       69  68  96 CALM      29.82S VSB 1/4
PROVINCETOWN   CLOUDY    72  66  83 SW10      29.79F
NANTUCKET      CLOUDY    72  70  93 SW7       29.83S
$$

ANZ330-335-338-340-345-350-353-355-310600-
COASTAL MARINE OBSERVATIONS


STATION/POSITION TIME  SKY/WX   TEMP    WIND        PRES    VSBY  WAVE
                                AIR SEA DIR/SP/G                  HT/PER
                 (UTC)          (F)     (DEG/KT/KT) (MB)    (MI)  (FT/S)
NY HARB ENTRANCE 0350            75 76  250/  8/ 10 1010.2          3/ 6
4S FIRE IS       NOT AVBL
20S FIRE ISLAND  0350            77 75  230/ 10/ 10 1010.0          4/ 6
GREAT SOUTH BAY  0430            77 81  270/ 10/ 14   N/A
23SW MTP         0450            75 74  240/ 10/ 12 1009.5          4/ 6
HUDSON CANYON    NOT AVBL
KINGS POINT      0400            76 70  170/  2/  3 1009.6
EXECUTION ROCKS  0400            73     230/  4/  4   N/A
CENTRAL LI SOUND NOT AVBL
EASTERN LI SOUND 0400            72 69  240/  8/ 10   N/A
ROBBINS REEF     0400            76     260/  6/  8 1009.4
$$


>>>>>>>>>>>>>>>>>>>>>>>>>>>> KEY <<<<<<<<<<<<<<<<<<<<<<<<<<<
>                                                          <
>     SKY/WX - SKY CONDITION/PRESENT WEATHER               <
>     TMP    - TEMPERATURE IN FAHRENHEIT                   <
>     DP     - DEWPOINT IN FAHRENHEIT                      <
>     RH     - RELATIVE HUMIDITY IN PERCENT                <
>     WIND   - DIRECTION AND SPEED IN MPH                  <
>     PRES   - MEAN SEA LEVEL PRESSURE IN INCHES OF HG     <
>     WCI    - WIND CHILL INDEX                            <
>     VSB    - VISIBILITY IN MILES                         <
>     HX     - HEAT INDEX                                  <
>     TC     - TEMPERATURE IN CELSIUS                      <
>     VRB    - VARIABLE WIND DIRECTION                     <
>                                                          <
>>>>>>>>>>>>>>>>>>>>>>>>>>>> KEY <<<<<<<<<<<<<<<<<<<<<<<<<<<





USA.gov is the U.S. government's official web portal to all federal, state and local government web resources and services.